Presure
130 125 134 148 147 141 142 160 148 150 148 142 146 136 151 133 138 141 140 139 133 155 160 160 153 166 166 180 152 176 162 173 183 132 170 168 129 136 159 170 295 472 437 164 198
141 139 136 135 127 131 139 156 159 158 138 132 133 138 159 145 134 140 144 152 152 157 156 144 149 163 177 174 134 154 159 195 179 217 136 123 128 164 464 217 140 454 145 445 369
133 134 135 129 139 138 139 143 138 133 146 136 141 141 133 136 145 153 152 155 149 152 165 145 165 164 167 118 190 180 196 199 215 207 222 143 166 279 427 253 185 130 371 144 139
138 150 150 149 140 144 142 136 142 142 142 145 146 147 150 151 145 155 155 138 154 163 153 167 171 151 106 179 174 192 153 208 176 144 121 152 223 291 414 421 382 355 416 245 337
151 160 131 140 139 143 147 136 134 142 147 150 138 146 146 140 154 144 147 142 150 148 170 162 174 171 181 177 188 191 195 177 228 219 224 232 260 298 399 423 385 354 353 323 358
166 153 152 158 153 137 125 133 140 145 145 143 140 132 141 150 147 150 142 124 164 141 164 173 161 175 136 179 187 153 210 201 232 222 217 132 294 374 167 407 275 353 350 212 369
153 146 165 152 150 159 159 156 154 150 146 134 143 146 152 159 148 152 126 157 153 127 169 166 162 167 178 179 200 148 217 229 209 224 240 179 297 163 141 385 186 350 350 367 387
190 128 177 175 156 152 153 147 144 157 155 159 160 141 153 152 156 163 163 164 118 127 162 170 171 178 108 194 197 206 224 183 238 233 231 204 286 335 378 381 382 348 358 376 394
200 140 184 170 163 162 163 155 153 148 152 157 156 157 161 159 161 150 144 158 174 145 184 155 178 172 189 198 205 213 227 191 218 229 175 254 281 328 394 381 368 161 273 375 388
205 172 196 169 185 164 165 174 172 166 171 168 162 147 166 156 164 171 170 168 172 150 176 181 177 190 197 199 186 219 203 215 197 243 236 261 301 327 384 370 338 346 305 372 379
134 153 197 156 153 172 171 142 177 177 159 164 134 164 144 160 152 159 157 166 171 169 149 180 183 187 196 195 214 222 201 224 233 230 213 271 305 373 392 373 331 345 366 373 372
193 195 154 212 181 191 187 168 138 165 169 148 165 163 168 161 142 167 151 176 171 170 148 186 172 189 199 198 223 198 209 225 224 128 252 270 306 375 384 380 373 373 385 365 320
193 189 165 189 151 164 165 169 167 205 187 185 171 166 159 169 177 177 169 163 168 159 173 174 191 204 204 176 197 198 206 201 214 239 249 205 295 364 386 213 383 367 377 361 203
249 185 125 146 118 155 135 141 153 157 145 205 187 177 171 164 170 168 156 180 176 178 151 177 200 205 219 203 190 206 209 192 220 237 258 217 256 394 150 367 199 381 204 256 170
160 184 136 127 224 152 159 209 199 163 175 157 148 181 151 179 178 171 174 157 192 165 197 206 210 174 206 204 203 212 206 230 236 252 250 255 289 317 388 378 145 107 177 108 176
134 200 191 136 163 161 149 134 165 210 200 186 206 219 196 174 179 200 184 219 172 163 172 196 175 177 207 203 211 220 187 231 214 242 247 270 285 297 391 322 386 391 214 379 175
274 166 231 155 174 130 218 124 152 175 207 203 219 231 193 200 188 191 201 169 195 189 193 195 183 193 197 206 207 226 203 163 165 246 220 251 282 289 398 395 122 130 373 387 394
276 148 154 127 164 172 155 167 193 150 212 174 209 195 212 195 187 176 207 205 201 161 195 196 155 203 202 201 228 223 233 180 242 247 256 243 276 289 401 397 390 154 373 404 215
133 179 222 249 142 122 191 167 157 170 205 176 160 197 197 199 144 197 200 180 202 200 207 186 158 202 212 214 222 207 224 242 223 245 210 268 256 270 411 398 142 363 383 351 358
281 201 187 258 200 251 220 209 207 193 203 188 202 165 172 200 151 204 183 181 218 198 197 200 180 213 216 223 199 216 222 190 231 241 241 263 270 283 425 395 224 239 181 337 360
215 264 273 252 263 192 202 256 212 171 200 217 203 173 186 158 189 154 173 226 183 213 194 207 202 213 216 191 218 234 236 230 243 242 253 271 272 292 432 400 402 368 391 346 298
214 272 248 251 251 174 251 240 268 201 174 193 181 181 174 184 154 238 225 188 220 181 211 179 207 205 208 212 226 217 222 106 232 246 235 263 270 301 355 410 403 369 397 348 319
265 220 257 244 269 208 194 183 233 161 191 192 205 195 220 143 230 180 222 201 184 188 215 193 216 203 205 205 221 227 227 217 215 247 238 248 266 250 327 430 397 411 403 345 315
258 261 224 258 191 260 265 129 154 139 250 203 162 215 186 180 171 180 212 205 204 213 203 208 204 215 220 193 171 224 232 229 236 232 243 246 268 245 323 449 406 405 273 349 300
263 254 171 220 263 255 255 254 134 227 218 193 172 231 217 202 220 206 149 212 214 209 186 216 179 205 220 151 221 224 231 229 239 228 248 252 224 294 316 459 417 397 379 344 179
246 243 257 255 253 251 248 251 242 250 241 237 235 224 217 232 222 214 207 219 213 199 214 202 190 200 210 218 215 231 221 227 236 233 146 203 268 249 318 465 414 399 385 389 313
233 230 264 207 256 252 241 251 245 248 240 225 227 235 174 220 189 207 216 213 204 209 205 205 210 219 210 219 218 226 222 226 234 124 236 221 229 252 313 504 424 413 393 376 285
Wind_Speed
38 34 37 45 45 45 42 47 44 46 47 47 45 49 49 42 44 46 51 50 48 60 64 63 56 75 77 89 57 83 71 67 81 4 42 25 18 22 54 79 66 39 39 56 46
46 43 42 43 39 41 42 48 47 47 47 45 45 49 53 44 45 48 53 58 59 61 59 52 56 71 87 84 36 60 60 101 85 110 4 25 30 69 46 44 58 35 45 39 33
41 41 42 37 47 48 48 50 47 48 52 47 52 49 40 44 49 54 54 59 56 56 72 55 73 72 73 36 91 75 103 106 114 92 111 32 70 106 53 40 61 37 34 55 41
47 56 54 55 49 50 52 48 53 54 56 55 58 52 54 51 45 58 58 44 61 73 51 74 81 56 31 84 76 102 74 115 75 19 33 56 97 118 56 52 41 34 31 39 29
57 65 44 51 48 52 57 48 47 55 62 66 45 55 49 50 60 48 52 52 60 48 82 67 87 79 92 79 98 100 107 74 113 104 110 111 114 118 55 45 39 31 27 27 28
67 60 60 66 63 51 43 47 52 58 60 59 51 39 49 59 59 60 49 47 80 52 74 87 65 83 62 90 99 74 116 100 119 109 99 47 128 74 24 45 27 32 28 25 27
58 53 71 58 58 68 69 68 68 64 61 51 58 59 65 75 60 67 48 71 58 49 82 73 70 67 88 86 108 70 115 113 99 107 120 64 123 32 26 44 24 33 31 31 29
78 47 71 74 64 62 63 58 55 71 72 74 73 59 68 63 69 78 78 79 47 48 61 78 83 91 42 104 104 110 114 78 115 113 108 78 122 111 48 41 35 34 31 31 25
67 56 77 67 63 68 70 63 66 62 68 69 66 70 74 71 73 67 64 65 89 51 94 55 90 78 101 105 109 114 113 82 103 110 46 129 121 106 34 36 36 18 20 29 26
73 61 80 64 76 67 70 76 73 74 80 80 78 53 80 66 72 85 84 83 87 50 89 93 86 101 102 104 85 109 96 107 88 125 114 130 117 104 31 37 26 35 9 25 21
49 59 73 61 56 66 69 48 73 77 66 76 42 76 46 68 55 64 59 78 83 75 49 89 92 94 102 100 109 103 92 114 111 109 85 127 113 62 27 30 22 32 26 23 20
68 60 54 83 71 77 79 67 50 68 71 51 80 72 80 69 44 78 55 87 77 78 51 94 76 95 101 90 101 87 99 106 110 28 125 122 110 58 34 29 24 25 20 17 9
68 73 55 68 55 62 59 61 65 81 82 81 81 72 59 80 87 87 79 67 71 62 78 80 98 99 99 67 86 85 91 86 101 121 121 55 106 69 35 8 21 23 17 15 36
64 75 52 49 37 58 51 52 54 55 43 83 78 82 82 71 80 75 56 90 77 85 48 77 97 97 94 90 76 90 97 85 101 117 113 69 77 38 19 23 14 18 32 21 40
46 74 50 52 78 58 65 83 77 56 65 52 46 54 47 83 85 74 78 56 92 58 87 89 89 63 92 88 87 102 91 118 117 113 98 99 100 94 27 31 18 29 38 23 47
52 50 74 57 63 65 48 51 66 81 70 63 69 68 75 76 71 78 89 73 69 59 57 88 69 70 91 88 98 110 77 112 86 103 91 104 92 85 22 7 14 9 29 6 42
55 46 67 65 66 51 77 40 53 65 77 69 76 73 75 74 57 83 77 62 81 85 83 83 73 83 87 95 95 106 85 44 48 99 65 80 96 77 21 17 19 23 1 6 15
54 58 62 56 66 70 58 71 70 53 80 63 75 67 70 65 58 69 74 78 78 55 79 81 47 92 90 81 103 98 102 59 102 100 97 71 93 80 17 13 5 30 7 16 45
51 56 57 62 59 44 74 65 56 67 82 63 49 66 65 66 35 66 72 68 80 80 87 73 50 91 103 99 97 81 97 95 78 98 54 89 64 63 14 11 27 7 13 36 31
49 53 52 55 53 76 81 81 81 73 74 74 75 52 52 68 42 74 62 65 92 74 75 86 66 94 93 90 77 90 91 60 86 92 86 91 74 81 9 9 12 20 20 48 36
55 50 49 52 53 59 58 66 80 52 71 85 77 63 67 49 65 40 58 81 58 80 73 84 79 84 80 70 87 86 86 89 90 91 92 90 82 83 14 6 6 14 23 50 54
55 48 53 51 49 54 58 69 56 61 57 70 68 66 58 63 37 58 60 65 63 63 69 59 77 75 80 82 83 81 83 19 85 90 76 91 82 80 58 8 9 18 28 54 72
48 50 50 52 47 44 50 61 57 44 70 58 65 62 70 34 59 54 49 59 66 60 65 69 70 73 76 67 76 82 84 75 60 87 79 78 73 35 81 11 13 22 31 61 74
54 46 48 47 45 47 49 36 45 40 55 45 43 54 45 62 56 61 49 54 59 60 64 68 68 73 75 64 47 81 84 82 84 74 81 77 80 35 82 13 18 27 38 61 70
51 45 43 46 44 45 47 49 45 51 51 56 54 53 56 62 59 52 39 53 56 60 59 67 57 68 72 39 75 81 78 82 84 73 80 80 26 87 83 19 20 29 38 60 49
52 49 44 46 43 44 47 49 51 53 52 51 54 59 57 54 49 52 54 52 57 59 64 64 60 64 72 77 76 78 76 78 80 78 20 21 76 46 87 21 20 30 43 53 80
51 52 44 49 46 46 48 51 53 53 56 52 54 57 44 52 46 54 57 54 58 62 65 66 67 70 72 75 76 75 75 77 78 21 76 48 27 48 87 14 22 27 39 54 76
Wind_Direction
279 280 273 274 277 279 278 278 277 277 277 280 282 287 286 290 290 293 291 293 296 306 309 312 308 316 318 321 317 317 316 320 325 294 332 326 242 255 307 309 303 306 294 246 247
271 274 277 277 277 280 280 280 281 279 279 283 283 284 289 292 287 293 296 302 303 308 308 303 305 316 319 320 320 319 327 326 318 328 244 229 256 321 327 255 237 314 265 296 273
273 272 273 272 274 276 279 281 277 276 281 283 284 284 282 286 293 299 301 307 301 306 311 300 317 314 319 291 323 321 327 330 328 325 330 304 308 335 333 278 294 263 299 255 261
272 271 268 269 274 274 276 277 281 280 283 286 286 291 294 296 296 303 304 293 307 310 309 314 318 304 286 322 324 328 299 328 322 328 253 317 331 338 337 337 322 304 314 270 282
269 267 270 273 271 273 275 275 277 281 286 288 284 293 294 291 303 298 300 300 305 306 313 319 317 319 322 325 327 329 329 322 330 332 333 335 334 340 341 333 333 312 308 290 295
265 269 270 269 270 273 272 276 278 281 283 286 289 284 293 304 300 302 301 289 308 293 316 316 317 322 288 326 327 311 327 326 330 334 338 284 342 339 286 350 311 322 320 255 304
268 269 264 267 270 271 272 274 276 279 282 284 288 294 298 296 302 304 286 304 312 292 314 317 316 323 323 326 325 308 328 328 333 335 343 318 345 297 283 346 281 328 328 326 323
259 274 264 264 266 269 271 275 278 279 281 281 284 287 295 295 299 298 300 304 292 290 318 315 321 322 305 322 325 325 326 325 333 339 344 332 345 350 337 338 343 329 336 339 345
264 273 264 264 268 267 271 273 276 279 281 284 289 290 289 295 296 297 297 307 304 305 310 314 318 321 321 322 324 326 327 333 336 340 328 343 345 351 335 339 340 204 325 350 357
263 266 257 265 263 268 271 272 271 274 276 282 284 293 292 295 299 299 301 305 307 311 312 313 317 317 319 322 328 324 329 333 333 336 340 343 348 352 342 336 329 337 326 348 3
278 270 258 270 271 267 271 278 274 273 281 279 289 286 299 298 305 305 307 306 306 308 316 314 316 319 319 322 322 324 332 331 337 341 328 343 349 345 340 338 332 339 351 348 359
259 261 268 256 264 264 262 268 281 277 275 284 282 285 288 294 303 297 303 300 306 311 312 311 318 318 318 321 323 329 331 334 338 297 341 344 351 345 337 343 342 345 359 353 314
255 260 266 261 276 272 274 274 272 271 273 274 277 287 296 290 290 293 301 304 311 309 315 312 313 315 317 329 327 329 334 334 334 338 342 342 349 352 343 250 346 346 355 346 167
251 254 274 267 282 277 280 278 280 280 286 274 276 276 282 294 293 299 303 298 307 308 314 315 312 314 316 320 330 330 334 333 339 339 343 343 349 346 206 352 197 357 181 169 181
265 253 264 273 257 278 277 264 267 277 277 286 289 286 287 281 286 292 298 305 297 309 304 309 313 323 318 321 326 327 333 329 333 338 343 346 350 357 351 351 232 157 184 164 176
273 256 254 272 266 267 274 283 277 271 271 283 276 282 279 285 288 288 290 298 307 315 313 310 320 323 318 322 324 324 324 330 331 341 342 350 352 358 349 305 12 51 194 16 187
259 255 245 263 262 271 261 289 285 276 276 276 286 285 275 280 290 284 295 299 296 299 305 309 314 317 318 322 325 323 327 322 318 341 336 349 349 354 348 359 202 141 58 103 145
259 266 270 273 268 264 269 269 269 282 275 280 279 277 284 280 289 292 297 298 298 315 305 308 320 313 316 321 318 323 326 328 336 342 346 348 349 352 350 360 30 167 137 130 190
258 262 254 249 262 285 262 270 278 273 273 276 280 279 283 285 285 294 297 299 300 300 301 309 308 312 311 314 319 329 326 332 341 340 337 350 349 352 339 356 207 137 145 148 159
258 255 258 250 262 245 249 257 261 266 273 276 278 278 282 289 285 294 297 299 296 299 303 304 314 307 310 314 322 324 327 328 338 342 347 350 352 350 311 337 181 206 210 166 163
259 254 250 253 252 258 260 253 254 272 269 267 271 282 278 280 285 286 300 287 298 294 301 299 307 306 311 315 318 323 330 333 335 339 342 346 352 352 335 295 210 185 163 173 178
257 252 255 255 254 256 252 248 256 265 275 266 275 278 288 286 285 281 284 295 293 303 296 311 304 309 312 315 320 327 331 245 337 336 347 345 352 355 356 240 212 193 172 177 173
250 254 254 257 252 261 255 257 256 268 264 272 267 272 272 272 273 293 285 289 297 295 294 302 304 308 313 314 321 327 329 330 337 336 344 348 348 352 356 226 212 184 180 181 177
250 252 255 254 254 250 248 272 272 267 252 264 272 267 266 283 284 288 283 287 289 291 295 300 304 308 313 314 319 325 327 329 332 339 340 346 346 351 354 237 206 191 192 185 182
250 250 248 254 243 245 244 245 278 253 261 272 280 256 263 275 274 283 292 283 287 290 298 298 304 309 314 306 322 324 325 327 330 338 337 341 332 350 353 237 209 194 197 188 193
245 246 245 244 245 242 245 246 246 245 244 249 248 255 263 263 272 278 284 284 286 291 295 300 309 313 315 319 320 322 325 327 329 334 217 315 345 336 352 231 210 198 193 194 192
244 244 241 251 237 234 239 244 243 246 244 252 253 253 269 262 276 277 280 284 288 291 295 301 306 309 315 314 318 318 323 326 328 238 334 331 353 330 349 253 211 207 196 197 196